This is the latest recevied weather packets stored in our database for station/object KB9PMA-1. If no packets are shown the sender has not sent any weather packets the latest 10 day(s).
| Time | Temp. | Humidity | Pressure | Rain* | Wind** | Luminosity | Snow |
|---|---|---|---|---|---|---|---|
| 1778162571 | 10° C | 58% | 1016.9 hPa | 0 mm | - | - | - |
| 1778162271 | 10° C | 60% | 1017 hPa | 0 mm | - | - | - |
| 1778161971 | 9.44° C | 60% | 1017 hPa | 0 mm | - | - | - |
| 1778161671 | 9.44° C | 59% | 1017 hPa | 0 mm | - | - | - |
| 1778161371 | 9.44° C | 56% | 1016.9 hPa | 0 mm | - | - | - |
| 1778161071 | 9.44° C | 60% | 1016.9 hPa | 0 mm | - | - | - |
| 1778160771 | 8.89° C | 65% | 1016.9 hPa | 0 mm | - | - | - |
| 1778160471 | 8.89° C | 64% | 1016.9 hPa | 0 mm | - | - | - |
| 1778160171 | 8.33° C | 66% | 1016.9 hPa | 0 mm | - | - | - |
| 1778159871 | 8.33° C | 63% | 1016.8 hPa | 0 mm | - | - | - |
| 1778159571 | 8.33° C | 66% | 1016.9 hPa | 0 mm | - | - | - |
| 1778159271 | 7.78° C | 71% | 1016.9 hPa | 0 mm | - | - | - |
| 1778158971 | 7.78° C | 73% | 1016.9 hPa | 0 mm | - | - | - |
| 1778158671 | 7.22° C | 73% | 1016.8 hPa | 0 mm | - | - | - |
| 1778158371 | 7.22° C | 74% | 1016.7 hPa | 0 mm | - | - | - |
| 1778158072 | 7.22° C | 75% | 1016.7 hPa | 0 mm | - | - | - |
| 1778157771 | 6.67° C | 76% | 1016.7 hPa | 0 mm | - | - | - |
| 1778157472 | 6.67° C | 77% | 1016.7 hPa | 0 mm | - | - | - |
| 1778157171 | 6.67° C | 76% | 1016.6 hPa | 0 mm | - | - | - |
| 1778156872 | 6.11° C | 78% | 1016.6 hPa | 0 mm | - | - | - |
| 1778156572 | 6.11° C | 82% | 1016.7 hPa | 0 mm | - | - | - |
| 1778156271 | 5.56° C | 80% | 1016.7 hPa | 0 mm | - | - | - |
| 1778155972 | 5° C | 85% | 1016.7 hPa | 0 mm | - | - | - |
| 1778155672 | 5° C | 87% | 1016.7 hPa | 0 mm | - | - | - |
| 1778155372 | 4.44° C | 90% | 1016.7 hPa | 0 mm | - | - | - |
* Rain latest hour (hover to see other rain measurements)
** Current wind speed in m/s (hover to see current wind gust speed)